Left ArrowRight Arrow

39.71368, -82.59933

Hourly Observations for June 22, 2024

Temp ( °F °C ) Dew Point ( °F °C ) Humidity (%) Winds ( mph kmh ) Pressure ( in mb ) Visibility ( mi km ) Precip ( " mm )
12:53 am 00:53 Clear 73 22.8 71 21.7 94 94 Calm 30.09 1019 10 16 0.00 0.00
1:53 am 01:53 Clear 72 22.2 70 21.1 93 93 SE 3 6 30.08 1019 10 16 0.00 0.00
2:53 am 02:53 Clear 71 21.7 70 21.1 96 96 Calm 30.08 1019 8 13 0.00 0.00
3:53 am 03:53 Clear 70 21.1 69 20.6 97 97 Calm 30.09 1019 7 11 0.00 0.00
4:53 am 04:53 Clear 69 20.6 68 20 96 96 Calm 30.09 1019 7 11 0.00 0.00
5:53 am 05:53 Clear 69 20.6 69 20.6 100 100 Calm 30.09 1019 7 11 0.00 0.00
6:53 am 06:53 Sunny with Mist and Fog 71 21.7 69 20.6 93 93 ESE 3 6 30.10 1019 5 8 0.00 0.00
7:53 am 07:53 Sunny 77 25 71 21.7 82 82 SSW 3 6 30.09 1019 9 14 0.00 0.00
8:53 am 08:53 Sunny 81 27.2 71 21.7 72 72 Calm 30.08 1019 9 14 0.00 0.00
9:53 am 09:53 Sunny 84 28.9 71 21.7 65 65 SSW 3 6 30.07 1018 10 16 0.00 0.00
10:53 am 10:53 Sunny 88 31.1 72 22.2 59 59 VRB 7 11 30.06 1018 10 16 0.00 0.00
11:53 am 11:53 Sunny 89 31.7 70 21.1 54 54 WSW 7 11 30.04 1017 10 16 0.00 0.00
12:53 pm 12:53 Mostly Sunny 92 33.3 70 21.1 49 49 SSW 8 13 30.02 1017 10 16 0.00 0.00
1:53 pm 13:53 Mostly Sunny 92 33.3 70 21.1 49 49 W 9 15 30.00 1016 10 16 0.00 0.00
2:53 pm 14:53 Mostly Cloudy 89 31.7 69 20.6 52 52 WSW 7 11 29.98 1015 10 16 0.00 0.00
3:53 pm 15:53 Mostly Sunny 93 33.9 69 20.6 46 46 WSW 12 19 29.96 1015 10 16 0.00 0.00
4:53 pm 16:53 Mostly Sunny 91 32.8 69 20.6 49 49 SW 8 13 29.93 1014 10 16 0.00 0.00
5:53 pm 17:53 Partly Cloudy 91 32.8 71 21.7 52 52 WSW 5 7 29.92 1013 10 16 0.00 0.00
6:53 pm 18:53 Mostly Cloudy 88 31.1 70 21.1 55 55 SW 7 11 29.91 1013 10 16 0.00 0.00
7:53 pm 19:53 Sunny 86 30 71 21.7 61 61 S 5 7 29.90 1013 10 16 0.00 0.00
8:53 pm 20:53 Sunny 84 28.9 71 21.7 65 65 S 6 9 29.88 1012 10 16 0.00 0.00
9:53 pm 21:53 Clear 82 27.8 72 22.2 72 72 S 5 7 29.87 1011 10 16 0.00 0.00
10:53 pm 22:53 Clear 82 27.8 71 21.7 69 69 SSW 7 11 29.87 1011 10 16 0.00 0.00
11:53 pm 23:53 Clear 82 27.8 71 21.7 69 69 SSW 6 9 29.87 1012 10 16 0.00 0.00

Powered by Vaisala Xweather